TimeEST,TemperatureF,Dew PointF,Humidity,Sea Level PressureIn,VisibilityMPH,Wind Direction,Wind SpeedMPH,Gust SpeedMPH,PrecipitationIn,Events,Conditions,WindDirDegrees,DateUTC
12:15 AM,47.1,33.4,59,29.73,10.0,SW,3.5,-,N/A,,Clear,220,2013-02-28 05:15:00
12:35 AM,46.8,33.3,59,29.73,10.0,SW,4.6,-,N/A,,Clear,220,2013-02-28 05:35:00
1:15 AM,44.8,33.6,65,29.75,10.0,NW,5.8,-,N/A,,Clear,320,2013-02-28 06:15:00
1:35 AM,43.0,34.2,71,29.75,10.0,Calm,Calm,-,N/A,,Clear,0,2013-02-28 06:35:00
1:55 AM,39.2,33.1,79,29.75,10.0,Calm,Calm,-,N/A,,Clear,0,2013-02-28 06:55:00
2:15 AM,37.4,32.5,83,29.74,10.0,Calm,Calm,-,N/A,,Clear,0,2013-02-28 07:15:00
2:35 AM,38.1,34.0,85,29.74,10.0,Calm,Calm,-,N/A,,Clear,0,2013-02-28 07:35:00
2:55 AM,37.0,33.4,87,29.74,10.0,Calm,Calm,-,N/A,,Clear,0,2013-02-28 07:55:00
3:15 AM,37.0,33.1,86,29.73,10.0,SSW,3.5,-,N/A,,Clear,200,2013-02-28 08:15:00
3:35 AM,37.6,34.2,87,29.73,10.0,South,3.5,-,N/A,,Clear,190,2013-02-28 08:35:00
3:55 AM,38.3,33.8,84,29.74,10.0,Calm,Calm,-,N/A,,Clear,0,2013-02-28 08:55:00
4:15 AM,38.7,33.6,82,29.74,10.0,Calm,Calm,-,N/A,,Clear,0,2013-02-28 09:15:00
4:35 AM,38.8,33.6,82,29.74,10.0,SSW,3.5,-,N/A,,Clear,200,2013-02-28 09:35:00
4:55 AM,38.3,33.8,84,29.74,10.0,SSW,3.5,-,N/A,,Clear,200,2013-02-28 09:55:00
5:15 AM,37.0,33.1,86,29.75,10.0,SSW,4.6,-,N/A,,Clear,210,2013-02-28 10:15:00
5:35 AM,37.9,33.6,84,29.75,10.0,Calm,Calm,-,N/A,,Scattered Clouds,0,2013-02-28 10:35:00
5:55 AM,38.7,34.0,83,29.75,10.0,SSW,4.6,-,N/A,,Scattered Clouds,210,2013-02-28 10:55:00
6:15 AM,36.7,33.1,87,29.75,10.0,SSW,3.5,-,N/A,,Scattered Clouds,210,2013-02-28 11:15:00
6:35 AM,36.5,33.6,89,29.76,10.0,Calm,Calm,-,N/A,,Mostly Cloudy,0,2013-02-28 11:35:00
6:55 AM,37.4,33.8,87,29.77,10.0,Calm,Calm,-,N/A,,Overcast,0,2013-02-28 11:55:00
7:15 AM,36.9,33.8,89,29.77,10.0,Calm,Calm,-,N/A,,Mostly Cloudy,0,2013-02-28 12:15:00
7:35 AM,37.0,33.8,88,29.77,10.0,SSW,3.5,-,N/A,,Scattered Clouds,210,2013-02-28 12:35:00
7:55 AM,38.7,34.7,86,29.78,10.0,SW,4.6,-,N/A,,Clear,220,2013-02-28 12:55:00
8:15 AM,41.2,35.6,81,29.79,10.0,Calm,Calm,-,N/A,,Clear,0,2013-02-28 13:15:00
8:35 AM,43.3,35.2,73,29.79,10.0,SW,3.5,-,N/A,,Clear,230,2013-02-28 13:35:00
8:55 AM,44.8,34.9,68,29.79,10.0,SW,4.6,-,N/A,,Clear,220,2013-02-28 13:55:00
9:15 AM,46.4,34.7,64,29.80,10.0,WSW,4.6,-,N/A,,Scattered Clouds,240,2013-02-28 14:15:00
9:35 AM,47.7,32.9,57,29.80,10.0,SW,3.5,-,N/A,,Clear,230,2013-02-28 14:35:00
9:55 AM,49.3,33.1,54,29.79,10.0,West,3.5,-,N/A,,Clear,270,2013-02-28 14:55:00
10:15 AM,50.4,28.8,43,29.80,10.0,NW,9.2,-,N/A,,Mostly Cloudy,310,2013-02-28 15:15:00
10:35 AM,48.4,29.5,48,29.80,10.0,West,4.6,-,N/A,,Overcast,280,2013-02-28 15:35:00
10:55 AM,48.4,29.3,48,29.80,10.0,West,5.8,-,N/A,,Overcast,270,2013-02-28 15:55:00
11:15 AM,48.0,29.8,49,29.80,10.0,West,6.9,-,N/A,,Overcast,280,2013-02-28 16:15:00
11:35 AM,48.7,29.5,47,29.80,10.0,West,5.8,-,N/A,,Overcast,270,2013-02-28 16:35:00
11:55 AM,48.2,28.2,46,29.80,10.0,West,6.9,-,N/A,,Overcast,280,2013-02-28 16:55:00
12:15 PM,48.4,26.1,42,29.80,10.0,West,9.2,-,N/A,,Overcast,270,2013-02-28 17:15:00
12:35 PM,49.1,25.5,40,29.80,10.0,NW,4.6,-,N/A,,Overcast,310,2013-02-28 17:35:00
12:55 PM,49.8,25.9,39,29.79,10.0,West,5.8,-,N/A,,Overcast,280,2013-02-28 17:55:00
1:15 PM,49.1,25.9,40,29.78,10.0,WNW,5.8,-,N/A,,Overcast,290,2013-02-28 18:15:00
1:35 PM,49.6,24.6,38,29.78,10.0,NW,8.1,-,N/A,,Overcast,310,2013-02-28 18:35:00
1:55 PM,50.5,24.3,36,29.78,10.0,WSW,6.9,-,N/A,,Overcast,250,2013-02-28 18:55:00
2:15 PM,50.4,23.5,35,29.78,10.0,WNW,10.4,-,N/A,,Overcast,290,2013-02-28 19:15:00
2:35 PM,50.0,24.4,37,29.78,10.0,West,5.8,-,N/A,,Overcast,280,2013-02-28 19:35:00
3:15 PM,50.4,24.4,36,29.79,10.0,West,5.8,-,N/A,,Overcast,280,2013-02-28 20:15:00
3:35 PM,50.9,23.5,34,29.79,10.0,West,5.8,-,N/A,,Overcast,280,2013-02-28 20:35:00
3:55 PM,51.1,22.8,33,29.78,10.0,West,3.5,-,N/A,,Overcast,280,2013-02-28 20:55:00
4:15 PM,52.5,21.9,30,29.79,10.0,West,5.8,-,N/A,,Overcast,280,2013-02-28 21:15:00
4:35 PM,51.6,22.1,32,29.80,10.0,WNW,8.1,-,N/A,,Overcast,300,2013-02-28 21:35:00
4:55 PM,50.2,23.4,35,29.80,10.0,WNW,5.8,-,N/A,,Overcast,290,2013-02-28 21:55:00
5:15 PM,50.0,23.4,35,29.80,10.0,Calm,Calm,-,N/A,,Scattered Clouds,0,2013-02-28 22:15:00
5:35 PM,48.4,24.8,40,29.81,10.0,WNW,4.6,-,N/A,,Scattered Clouds,290,2013-02-28 22:35:00
5:55 PM,47.7,24.6,41,29.83,10.0,West,3.5,-,N/A,,Scattered Clouds,270,2013-02-28 22:55:00
6:15 PM,46.6,25.5,44,29.83,10.0,Calm,Calm,-,N/A,,Scattered Clouds,0,2013-02-28 23:15:00
6:35 PM,45.7,26.1,46,29.83,10.0,NW,4.6,-,N/A,,Clear,310,2013-02-28 23:35:00
6:55 PM,43.7,26.6,51,29.84,10.0,WNW,4.6,-,N/A,,Clear,290,2013-02-28 23:55:00
7:15 PM,43.9,26.4,50,29.85,10.0,WNW,3.5,-,N/A,,Clear,290,2013-03-01 00:15:00
7:35 PM,43.3,26.6,52,29.85,10.0,Calm,Calm,-,N/A,,Clear,0,2013-03-01 00:35:00
7:55 PM,42.3,26.8,54,29.86,10.0,WNW,4.6,-,N/A,,Clear,290,2013-03-01 00:55:00
8:15 PM,41.4,26.2,55,29.85,10.0,WNW,4.6,-,N/A,,Clear,300,2013-03-01 01:15:00
8:35 PM,40.5,25.9,56,29.85,10.0,WNW,3.5,-,N/A,,Clear,300,2013-03-01 01:35:00
8:55 PM,40.5,26.1,57,29.87,10.0,Calm,Calm,-,N/A,,Clear,0,2013-03-01 01:55:00
9:15 PM,38.7,27.1,63,29.87,10.0,Calm,Calm,-,N/A,,Clear,0,2013-03-01 02:15:00
9:35 PM,38.8,26.2,61,29.87,10.0,Calm,Calm,-,N/A,,Clear,0,2013-03-01 02:35:00
9:55 PM,32.9,28.0,82,29.88,10.0,Calm,Calm,-,N/A,,Clear,0,2013-03-01 02:55:00
10:15 PM,33.1,28.6,84,29.88,10.0,Calm,Calm,-,N/A,,Clear,0,2013-03-01 03:15:00
10:35 PM,31.8,28.8,88,29.88,10.0,West,3.5,-,N/A,,Clear,260,2013-03-01 03:35:00
10:55 PM,31.3,26.4,82,29.89,10.0,Calm,Calm,-,N/A,,Clear,0,2013-03-01 03:55:00
11:15 PM,30.0,27.0,88,29.89,10.0,Calm,Calm,-,N/A,,Clear,0,2013-03-01 04:15:00
11:35 PM,30.7,27.1,86,29.89,10.0,Calm,Calm,-,N/A,,Clear,0,2013-03-01 04:35:00
11:55 PM,30.2,27.0,88,29.89,10.0,Calm,Calm,-,N/A,,Clear,0,2013-03-01 04:55:00